Location: Newark
(40.2531°N, 0.7525°W)
Time: 06:30:27
(UTC+00:00)

Hubble Space Telescope - Pass Details

Date: 27 March 2019
Orbit: 537 x 540 km, 28.5° (Epoch: 24 April)

Event Time Altitude Azimuth Distance (km) Brightness Sun altitude
Rises 19:42:29 0° 235° (SW) 2,673 4.9 -15.9°
Reaches altitude 10° 19:45:30 10° 212° (SSW) 1,783 3.6 -16.4°
Maximum altitude 19:47:56 15° 176° (S) 1,474 2.8 -16.9°
Enters shadow 19:48:20 15° 169° (SSE) 1,483 2.7 -16.9°
